CAPE
413 205 308 142 56 46 161 38 18 52 15 5 12 9 10 4 2 0 0 0 0 0 0 0 0 0 0 0 0 0 0 0 0 0 0 0 0 0 0 0 0 0
579 404 281 204 47 10 174 112 54 112 81 3 0 4 14 6 45 0 3 1 1 0 0 0 0 0 0 0 0 0 0 0 0 0 0 0 0 0 0 0 0 0
658 588 535 352 171 63 131 272 174 132 162 33 1 7 18 25 125 1 6 11 0 0 0 0 0 0 0 0 0 0 0 0 0 0 0 0 0 0 0 0 0 0
846 781 668 536 369 241 158 319 253 191 154 127 38 17 37 93 178 29 60 37 0 14 1 0 0 0 0 0 0 0 0 0 0 0 0 0 0 0 0 0 0 0
1061 991 834 681 514 402 453 488 432 252 162 151 196 64 41 186 242 38 134 104 9 43 32 0 0 0 0 0 0 0 0 0 0 0 0 0 0 0 0 0 0 0
1037 1029 914 744 660 515 451 604 572 476 312 247 342 180 97 341 260 54 118 164 37 68 60 19 0 0 0 0 0 0 0 0 0 0 0 0 0 0 0 0 0 0
856 901 928 764 660 596 604 529 598 602 501 27 196 431 138 343 284 99 117 188 138 114 100 85 9 0 0 0 0 0 0 0 0 0 0 0 0 0 0 0 0 0
738 705 387 760 626 679 707 673 583 692 835 578 498 509 352 236 259 190 170 221 192 175 176 142 79 3 0 0 0 0 0 0 0 0 0 0 0 0 0 0 0 0
769 894 950 707 657 533 540 655 282 670 794 826 770 673 708 525 207 177 220 235 272 238 218 203 130 50 17 0 0 0 0 0 0 0 0 0 0 0 0 0 0 0
908 840 810 720 698 752 728 460 319 273 309 816 954 967 824 784 500 211 262 296 251 301 280 238 177 90 32 3 0 0 0 0 0 0 0 0 0 0 0 0 0 0
1008 1007 979 905 945 1099 976 874 309 349 501 438 573 753 781 767 712 504 345 424 414 384 376 312 250 138 54 18 0 0 0 0 0 0 0 0 0 0 0 0 0 0
1060 1183 1185 1173 1051 1114 1395 1242 1306 1167 1077 928 608 714 759 673 601 591 306 441 484 279 389 384 258 186 80 39 6 0 0 0 0 0 0 0 0 0 0 0 0 0
877 800 835 1145 1328 1165 1016 1137 1045 869 811 764 793 794 850 778 705 619 643 631 612 542 479 359 395 169 133 64 29 2 0 0 0 0 0 0 0 0 0 0 0 0
1 253 445 899 1190 768 783 849 892 934 808 887 811 1005 802 757 798 639 649 594 592 548 404 586 277 234 212 102 76 19 1 0 0 0 0 0 0 0 0 0 0 0
8 1 0 0 17 152 568 818 749 599 702 566 573 728 848 680 635 782 726 651 638 644 389 464 338 271 286 223 195 24 0 0 0 0 0 0 0 0 0 0 0 0
0 0 0 0 0 0 49 200 412 567 787 768 750 693 692 796 735 655 765 754 632 593 414 325 331 343 267 101 139 103 31 11 0 0 0 0 0 0 0 0 0 0
0 0 0 0 0 0 0 6 54 207 445 506 516 566 656 765 775 743 786 779 647 547 395 157 239 136 79 268 58 38 35 12 0 0 0 0 0 0 0 0 0 0
0 0 0 0 0 0 0 0 0 0 106 455 504 456 456 466 587 637 580 578 628 486 662 360 240 30 53 0 0 0 38 25 6 0 0 0 0 0 0 0 0 0
0 0 0 0 0 0 0 0 0 0 1 82 299 452 534 482 474 488 556 572 567 584 429 222 242 0 0 0 0 0 0 0 0 0 0 0 0 0 0 0 0 0
0 0 0 0 0 0 0 0 0 3 12 32 44 126 210 356 417 499 507 533 617 552 559 373 230 52 0 0 0 0 0 0 0 0 0 0 1 0 0 0 0 0
0 0 0 0 0 0 0 0 0 9 31 61 90 125 129 158 284 319 404 354 368 478 458 535 10 0 0 0 0 0 11 0 0 0 0 0 2 0 0 0 0 0
0 0 0 0 0 0 0 0 0 25 62 50 7 31 134 186 173 291 320 374 472 526 560 179 21 35 0 0 11 0 0 18 6 0 2 4 2 2 0 0 0 0
0 0 0 0 0 0 0 0 0 0 47 75 89 74 74 127 161 196 237 274 318 339 110 0 0 0 0 21 27 107 15 6 7 3 3 1 0 0 0 0 0 0
0 0 0 0 0 0 0 4 14 22 52 125 173 164 122 106 109 97 140 196 179 268 0 0 0 0 15 5 6 10 20 8 4 1 0 0 0 0 0 0 0 0
0 0 0 0 0 0 6 12 24 50 72 117 182 189 170 146 59 82 149 162 58 0 0 0 0 0 0 4 4 15 24 26 13 3 2 1 0 0 0 0 0 0
0 0 0 5 18 28 26 39 53 56 103 162 156 106 83 139 158 130 48 0 0 0 0 0 3 5 8 2 11 19 44 44 0 0 9 1 0 0 0 1 2 4
Wind_Speed
21 20 20 20 nan nan 22 nan nan nan nan nan nan nan nan nan nan nan nan nan nan nan nan nan nan nan nan nan nan nan nan nan nan nan nan nan nan nan nan nan nan nan
21 20 20 20 nan nan 22 21 nan 21 nan nan nan nan nan nan nan nan nan nan nan nan nan nan nan nan nan nan nan nan nan nan nan nan nan nan nan nan nan nan nan nan
21 21 20 19 19 nan 21 23 21 20 20 nan nan nan nan nan 18 nan nan nan nan nan nan nan nan nan nan nan nan nan nan nan nan nan nan nan nan nan nan nan nan nan
22 21 20 18 18 19 20 21 21 20 20 20 nan nan nan nan 16 nan nan nan nan nan nan nan nan nan nan nan nan nan nan nan nan nan nan nan nan nan nan nan nan nan
22 20 19 18 18 17 18 18 19 19 19 19 18 nan nan 18 16 nan 16 16 nan nan nan nan nan nan nan nan nan nan nan nan nan nan nan nan nan nan nan nan nan nan
21 19 19 19 19 18 17 18 17 17 17 17 17 17 nan 18 17 nan 17 17 nan nan nan nan nan nan nan nan nan nan nan nan nan nan nan nan nan nan nan nan nan nan
21 20 19 19 19 18 17 17 18 17 16 nan 17 17 16 17 17 nan 17 17 17 16 16 nan nan nan nan nan nan nan nan nan nan nan nan nan nan nan nan nan nan nan
25 21 19 19 18 18 17 17 17 18 19 18 17 18 16 16 17 17 17 17 16 17 16 15 nan nan nan nan nan nan nan nan nan nan nan nan nan nan nan nan nan nan
32 28 25 21 19 18 17 17 17 17 20 20 19 19 19 18 18 17 16 17 17 16 17 17 16 nan nan nan nan nan nan nan nan nan nan nan nan nan nan nan nan nan
31 29 26 23 21 23 22 21 20 19 19 20 21 21 21 21 20 16 16 16 15 17 18 18 18 nan nan nan nan nan nan nan nan nan nan nan nan nan nan nan nan nan
28 27 27 27 26 28 26 26 24 24 24 22 23 24 22 22 22 20 17 17 17 17 18 18 19 19 nan nan nan nan nan nan nan nan nan nan nan nan nan nan nan nan
28 26 28 29 27 28 34 32 29 27 28 27 25 25 24 23 22 23 21 18 20 19 19 20 20 19 nan nan nan nan nan nan nan nan nan nan nan nan nan nan nan nan
35 30 29 31 33 31 30 30 29 28 28 29 30 28 26 25 24 23 24 23 24 23 23 23 23 23 24 nan nan nan nan nan nan nan nan nan nan nan nan nan nan nan
nan 40 38 39 40 34 30 29 32 32 31 32 31 30 30 28 26 26 27 27 27 28 25 30 27 26 28 28 nan nan nan nan nan nan nan nan nan nan nan nan nan nan
nan nan nan nan nan 39 38 36 39 35 31 35 32 29 32 30 26 26 27 28 27 29 29 31 31 34 33 29 29 nan nan nan nan nan nan nan nan nan nan nan nan nan
nan nan nan nan nan nan nan 40 40 40 40 42 39 36 32 31 30 29 30 29 28 31 34 36 36 34 32 34 34 36 nan nan nan nan nan nan nan nan nan nan nan nan
nan nan nan nan nan nan nan nan nan 43 43 44 44 42 41 40 38 36 35 34 36 37 36 38 39 36 nan 46 nan nan nan nan nan nan nan nan nan nan nan nan nan nan
nan nan nan nan nan nan nan nan nan nan 46 46 46 45 45 44 43 42 40 39 41 40 46 46 44 nan nan nan nan nan nan nan nan nan nan nan nan nan nan nan nan nan
nan nan nan nan nan nan nan nan nan nan nan nan 47 47 47 47 45 44 44 43 44 48 47 47 46 nan nan nan nan nan nan nan nan nan nan nan nan nan nan nan nan nan
nan nan nan nan nan nan nan nan nan nan nan nan nan 47 47 46 46 45 45 45 45 47 48 48 53 nan nan nan nan nan nan nan nan nan nan nan nan nan nan nan nan nan
nan nan nan nan nan nan nan nan nan nan nan nan nan 48 47 48 48 48 48 47 46 47 48 49 nan nan nan nan nan nan nan nan nan nan nan nan nan nan nan nan nan nan
nan nan nan nan nan nan nan nan nan nan nan nan nan nan 52 52 52 53 52 51 50 51 51 61 nan nan nan nan nan nan nan nan nan nan nan nan nan nan nan nan nan nan
nan nan nan nan nan nan nan nan nan nan nan nan nan nan nan 51 52 53 53 52 52 53 60 nan nan nan nan nan nan 66 nan nan nan nan nan nan nan nan nan nan nan nan
nan nan nan nan nan nan nan nan nan nan nan 49 49 49 49 49 49 nan 51 52 53 54 nan nan nan nan nan nan nan nan nan nan nan nan nan nan nan nan nan nan nan nan
nan nan nan nan nan nan nan nan nan nan nan 46 46 46 46 47 nan nan 51 54 nan nan nan nan nan nan nan nan nan nan nan nan nan nan nan nan nan nan nan nan nan nan
nan nan nan nan nan nan nan nan nan nan 45 45 45 45 nan 46 46 47 nan nan nan nan nan nan nan nan nan nan nan nan nan nan nan nan nan nan nan nan nan nan nan nan
Wind_Direction
295 293 294 292 nan nan 291 nan nan nan nan nan nan nan nan nan nan nan nan nan nan nan nan nan nan nan nan nan nan nan nan nan nan nan nan nan nan nan nan nan nan nan
294 294 291 291 nan nan 289 289 nan 287 nan nan nan nan nan nan nan nan nan nan nan nan nan nan nan nan nan nan nan nan nan nan nan nan nan nan nan nan nan nan nan nan
292 293 291 292 290 nan 288 286 284 284 283 nan nan nan nan nan 285 nan nan nan nan nan nan nan nan nan nan nan nan nan nan nan nan nan nan nan nan nan nan nan nan nan
293 292 290 289 285 285 285 282 282 280 279 280 nan nan nan nan 288 nan nan nan nan nan nan nan nan nan nan nan nan nan nan nan nan nan nan nan nan nan nan nan nan nan
290 289 287 284 282 281 279 279 279 276 277 277 279 nan nan 289 294 nan 296 297 nan nan nan nan nan nan nan nan nan nan nan nan nan nan nan nan nan nan nan nan nan nan
280 280 282 284 282 281 279 278 274 270 270 275 279 283 nan 295 300 nan 304 302 nan nan nan nan nan nan nan nan nan nan nan nan nan nan nan nan nan nan nan nan nan nan
274 274 278 281 282 281 278 273 269 268 267 nan 276 281 284 294 302 nan 308 306 306 304 303 nan nan nan nan nan nan nan nan nan nan nan nan nan nan nan nan nan nan nan
272 267 268 272 277 280 278 273 265 266 267 269 274 280 282 291 299 299 303 307 306 306 304 303 nan nan nan nan nan nan nan nan nan nan nan nan nan nan nan nan nan nan
269 263 257 261 277 277 276 275 275 269 268 268 270 272 279 283 287 292 297 300 301 299 299 298 297 nan nan nan nan nan nan nan nan nan nan nan nan nan nan nan nan nan
269 266 272 275 275 275 276 280 280 276 273 274 272 271 274 277 278 279 285 285 289 293 293 292 292 nan nan nan nan nan nan nan nan nan nan nan nan nan nan nan nan nan
272 272 276 278 280 281 281 273 273 279 280 283 282 281 281 277 279 278 274 280 280 286 287 284 285 286 nan nan nan nan nan nan nan nan nan nan nan nan nan nan nan nan
261 265 273 278 276 275 275 273 270 271 273 273 278 280 279 279 276 276 273 278 282 281 282 279 278 278 nan nan nan nan nan nan nan nan nan nan nan nan nan nan nan nan
268 269 267 267 267 265 270 274 275 278 279 278 275 276 275 277 276 272 272 274 276 279 278 276 275 274 274 nan nan nan nan nan nan nan nan nan nan nan nan nan nan nan
nan 260 263 266 271 270 265 264 262 260 259 259 264 273 277 277 275 275 277 277 277 274 274 272 272 275 273 276 nan nan nan nan nan nan nan nan nan nan nan nan nan nan
nan nan nan nan nan 261 265 268 273 270 266 264 260 263 262 263 269 271 275 279 278 278 277 279 280 277 277 276 275 nan nan nan nan nan nan nan nan nan nan nan nan nan
nan nan nan nan nan nan nan 260 259 262 267 271 272 270 272 272 275 274 274 275 277 277 276 273 275 276 273 278 277 275 nan nan nan nan nan nan nan nan nan nan nan nan
nan nan nan nan nan nan nan nan nan 260 261 262 266 269 272 275 275 275 275 275 271 267 269 272 269 267 nan 277 nan nan nan nan nan nan nan nan nan nan nan nan nan nan
nan nan nan nan nan nan nan nan nan nan 263 265 265 267 269 271 274 275 275 274 273 274 275 274 275 nan nan nan nan nan nan nan nan nan nan nan nan nan nan nan nan nan
nan nan nan nan nan nan nan nan nan nan nan nan 270 272 272 272 273 275 275 275 275 275 276 274 271 nan nan nan nan nan nan nan nan nan nan nan nan nan nan nan nan nan
nan nan nan nan nan nan nan nan nan nan nan nan nan 270 273 275 275 277 277 277 277 278 277 276 271 nan nan nan nan nan nan nan nan nan nan nan nan nan nan nan nan nan
nan nan nan nan nan nan nan nan nan nan nan nan nan 270 271 273 275 276 276 275 275 276 276 276 nan nan nan nan nan nan nan nan nan nan nan nan nan nan nan nan nan nan
nan nan nan nan nan nan nan nan nan nan nan nan nan nan 269 270 272 274 275 277 277 275 275 273 nan nan nan nan nan nan nan nan nan nan nan nan nan nan nan nan nan nan
nan nan nan nan nan nan nan nan nan nan nan nan nan nan nan 268 269 271 272 273 274 274 274 nan nan nan nan nan nan 275 nan nan nan nan nan nan nan nan nan nan nan nan
nan nan nan nan nan nan nan nan nan nan nan 265 265 265 266 267 267 nan 269 269 270 273 nan nan nan nan nan nan nan nan nan nan nan nan nan nan nan nan nan nan nan nan
nan nan nan nan nan nan nan nan nan nan nan 262 263 264 264 264 nan nan 266 266 nan nan nan nan nan nan nan nan nan nan nan nan nan nan nan nan nan nan nan nan nan nan
nan nan nan nan nan nan nan nan nan nan 262 262 261 262 nan 264 264 263 nan nan nan nan nan nan nan nan nan nan nan nan nan nan nan nan nan nan nan nan nan nan nan nan